SUPERVIEW NEO-1 02

导读

SUPERVIEW NEO-1 02是中国四维测绘科技打造的高分辨率商业光学遥感卫星,于2022年4月29日成功发射。卫星搭载先进光学成像系统,原始空间分辨率达0.3米,达到国际现役商业光学卫星顶尖水平,可服务自然资源调查、城市安全监测、应急灾害管理等领域,标志着中国商业光学遥感技术跻身全球前列,曾在全球商业遥感光电能力排名中位居前列。

Basic Information
目录编号:
52322
目录名称:
SUPERVIEW NEO-1 02
国际标识:
2022-043C
轨道中心:
EARTH
卫星名称:
SUPERVIEW NEO-1 02
卫星全名:
--
卫星状态:
在轨 (已飞行1551 天)
发射日期:
2022-04-29 UTC
国别 :
中国 (CN)
星等 :
--
Orbit Information
数据来源 国际轨道数据 AOE轨道数据
星历时间 2026-07-28T13:08:26+0800
11小时前
查看轨道信息
2026-07-23T00:00:00+0800
6天前
查看轨道信息
半长轴 6893.663km 6893.826km
偏心率 0.0002491 0.000202
轨道倾角 97.339° 97.340°
近地点辐角 145.171° 170.226°
升交点赤经 280.694° 275.326°
平近点角 214.969° 157.688°
近地点 513.808km 514.296km
远地点 517.244km 517.082km
周期 94.937分钟 94.940分钟
每日圈数 15.167979 15.167442
Detailed Information
使用方式:
暂无
2D Orbit Map
3D Orbit Map
Orbit Altitude Analysis Chart
Orbit Inclination Analysis Chart
Orbit Comprehensive Analysis Chart
View Comprehensive Chart